TimeCST,TemperatureF,Dew PointF,Humidity,Sea Level PressureIn,VisibilityMPH,Wind Direction,Wind SpeedMPH,Gust SpeedMPH,PrecipitationIn,Events,Conditions,WindDirDegrees,DateUTC
12:53 AM,46.9,45.0,93,30.18,10.0,Calm,Calm,-,N/A,,Clear,0,2012-11-21 06:53:00
1:53 AM,46.0,44.1,93,30.17,10.0,Calm,Calm,-,N/A,,Clear,0,2012-11-21 07:53:00
2:53 AM,46.0,44.1,93,30.17,10.0,Calm,Calm,-,N/A,,Clear,0,2012-11-21 08:53:00
3:53 AM,45.0,43.0,93,30.17,9.0,Calm,Calm,-,N/A,,Clear,0,2012-11-21 09:53:00
4:53 AM,45.0,43.0,93,30.18,9.0,Calm,Calm,-,N/A,,Clear,0,2012-11-21 10:53:00
5:53 AM,44.1,43.0,96,30.19,9.0,Calm,Calm,-,N/A,,Clear,0,2012-11-21 11:53:00
6:53 AM,45.0,43.0,93,30.20,8.0,Calm,Calm,-,N/A,,Clear,0,2012-11-21 12:53:00
7:53 AM,51.1,46.9,86,30.23,10.0,Calm,Calm,-,N/A,,Clear,0,2012-11-21 13:53:00
8:53 AM,60.1,48.9,67,30.24,9.0,WNW,3.5,-,N/A,,Clear,300,2012-11-21 14:53:00
9:53 AM,66.9,51.1,57,30.24,10.0,NW,4.6,-,N/A,,Clear,320,2012-11-21 15:53:00
10:53 AM,73.0,55.0,53,30.22,10.0,NNW,6.9,-,N/A,,Clear,340,2012-11-21 16:53:00
11:53 AM,73.9,54.0,50,30.19,10.0,Variable,5.8,-,N/A,,Scattered Clouds,0,2012-11-21 17:53:00
12:53 PM,75.9,51.1,42,30.17,10.0,NNE,6.9,17.3,N/A,,Mostly Cloudy,20,2012-11-21 18:53:00
1:53 PM,77.0,42.1,29,30.14,10.0,North,6.9,-,N/A,,Clear,360,2012-11-21 19:53:00
2:53 PM,77.0,43.0,30,30.14,10.0,Variable,5.8,-,N/A,,Clear,0,2012-11-21 20:53:00
3:53 PM,75.9,39.9,27,30.14,10.0,Variable,6.9,-,N/A,,Clear,0,2012-11-21 21:53:00
4:53 PM,70.0,43.0,38,30.15,10.0,Calm,Calm,-,N/A,,Clear,0,2012-11-21 22:53:00
5:53 PM,61.0,46.0,58,30.16,10.0,Calm,Calm,-,N/A,,Clear,0,2012-11-21 23:53:00
6:53 PM,55.0,46.9,74,30.18,10.0,Calm,Calm,-,N/A,,Clear,0,2012-11-22 00:53:00
7:53 PM,52.0,46.0,80,30.19,10.0,Calm,Calm,-,N/A,,Clear,0,2012-11-22 01:53:00
8:53 PM,51.1,46.0,83,30.20,10.0,Calm,Calm,-,N/A,,Clear,0,2012-11-22 02:53:00
9:53 PM,48.9,44.1,83,30.20,10.0,Calm,Calm,-,N/A,,Clear,0,2012-11-22 03:53:00
10:53 PM,48.0,44.1,86,30.20,10.0,Calm,Calm,-,N/A,,Clear,0,2012-11-22 04:53:00
11:53 PM,46.0,44.1,93,30.19,10.0,Calm,Calm,-,N/A,,Clear,0,2012-11-22 05:53:00